ORBCOMM FM 5 DEB, 51092

Orbit data source: Space-Track

ORBCOMM FM 5 DEB, 51092 is space debris in LEO originally from a launch on Tue, 23 Dec 1997 UTC launched from the Pegasus Launch, Eastern Range Air Space (ERAS). Debris objects in space refer to the collection of defunct objects orbiting the Earth. Examples of debris include non-operational satellites, rocket bodies, and fragments generated from explosions, collisions, or faulty payload assembly.

Loading next visibility...
Identifier
51092, 1997-084W
Orbit
LEO
Country
Flag of USUS / ORB
Related business
Manufacturer
OSC-Germantown
Mission
Spacecraft
Bus & Motor
Unknown
Mass
Unknown
Launch date (UTC)
1997-12-23 (28 years ago)
Launch vehicle
Unknown
Launch site
Pegasus Launch, Eastern Range Air Space (ERAS)
Object type
Payload
Rocket body
Debris
Shape & HBR
Unknown shape, 0.1 m
Radar Cross Section
0.016 m², Small (<0.1 m²)

Expand to show TLE details & history
Last TLE update: 2 weeks ago

TLE from 2 weeks ago
0 ORBCOMM FM 5 DEB
1 51092U 97084W   26160.85684904  .00000259  00000-0  13845-3 0  9994
2 51092  45.0217 215.3313 0038268 318.8436  40.9528 14.34886906223998
Epoch: 2026-06-09T20:33Z
TLE epoch observation values (Epoch: 2026-06-09T20:33:51.757Z)
Latitude
0.00005°
Longitude
8.64235°
Altitude
754.816 km
Speed
7.489 km/s
True Right ascension
14h 21m 19s
True Declination
0° 00' 00"
Sunlit
Object was in full shadow at epoch
Visualization orbit readout
Latitude
Unknown
Longitude
Unknown
Altitude
Unknown
Speed
Unknown
Apparent Right ascension
Unknown
Apparent Declination
Unknown
Sunlit
N/A
Visualization observer readout
Local Sidereal Time
21:34:06
Azimuth
Unknown
Elevation
Unknown
Doppler factor
Unknown
Orbital elements
Apogee altitude
804.364 km
Perigee altitude
749.601 km
Semi-major axis
7,155.12 km
Eccentricity
0.00383
Inclination
45.0217°
RAAN
215.3313°
Arg. of periapsis
318.8436°
True anomaly
41.24126°
Mean anomaly
40.9528°
Eccentric anomaly
41.09693°
Mean motion
3.58606 °/min
Orbital period
100.39 mins
BSTAR
0.00013845
Loading maneuver chart data...
Computing Atmospheric mass density...

Documentation

Showing up to 5 results
|